Weather in Nizhnie Serogozy

Ukraine / Kherson District     46˚50′36″N   34˚22′35″E
temp.,
°C
wind,
m/s
gust,
m/s
humid.,
%
clouds,
%
prec.,
mm/h
press.,
hPa
HPBL,
m
2 december, wed
wed223:00+5˚ene61080100 0.0 1022533
02:00+5˚e61181100 0.0 1022517
05:00+4˚e71181100 0.0 1022540
08:00+5˚e61183100 0.0 1023534
11:00+5˚e71081100 0.0 1023552
14:00+5˚e6981100 0.0 1023526
17:00+5˚ese5984100 0.0 1023474
20:00+5˚e5983100 0.0 1024393
3 december, thu
thu323:00+5˚e598974 0.0 1024229
02:00+5˚ese359471 0.0 1024128
05:00+5˚se2497100 0.1 1024116
08:00+6˚se3795100 0.1 1025288
11:00+8˚se567979 0.1 1025588
14:00+9˚se347382 0.1 1024711
17:00+7˚ese457898 0.0 1024318
20:00+4˚e479365 0.0 1024197
4 december, fri
fri423:00+3˚e36940 0.0 1024143
02:00+3˚ene48950 0.0 1024171
05:00+2˚e48960 0.0 1023199
08:00+2˚e5109616 0.0 1023280
11:00+5˚e688575 0.0 1023457
14:00+7˚e687788 0.0 1022538
17:00+5˚e6118497 0.0 1022517
20:00+4˚e6139068 0.0 1023417
5 december, sat
sat523:00+4˚e612925 0.0 1023368
02:00+3˚e6139311 0.0 1024376
05:00+3˚e6139345 0.0 1024419
08:00+3˚e6139052 0.0 1025484
11:00+5˚e7107794 0.0 1026542
14:00+6˚e697385 0.0 1025555
17:00+3˚e6118246 0.0 1026494
20:00+2˚e7128154 0.0 1027525
6 december, sun
sun623:00+2˚e6128521 0.0 1027465
02:00+1˚e6118241 0.0 1027556
05:00+1˚e6118092 0.0 1027598
08:00+1˚e7127995 0.0 1027635
11:00+3˚e81270100 0.0 1027739
14:00+4˚e8126665 0.0 1026773
17:00+1˚e815733 0.0 1026673
20:00+1˚e815733 0.0 1026664